| time (UTC) | temp F | wind direction | speed MPH | gust MPH | rain 1hr in | rain 24hr in | rain mn in | humidity % | barometer mb |
| 20260502224542 | 93 | 179 | 3.0 | 9.0 | 0.00 | 0.00 | 0.00 | 13 | 1008.3 |
| 20260502224025 | 93 | 174 | 3.0 | 9.0 | 0.00 | 0.00 | 0.00 | 13 | 1008.3 |
| 20260502223527 | 93 | 215 | 3.0 | 12.0 | 0.00 | 0.00 | 0.00 | 13 | 1008.5 |
| 20260502223044 | 93 | 221 | 3.0 | 12.0 | 0.00 | 0.00 | 0.00 | 12 | 1008.5 |
| 20260502222526 | 94 | 142 | 3.0 | 7.0 | 0.00 | 0.00 | 0.00 | 13 | 1008.4 |
| 20260502222024 | 93 | 0 | 1.0 | 7.0 | 0.00 | 0.00 | 0.00 | 13 | 1008.6 |
| 20260502221545 | 93 | 352 | 1.0 | 9.0 | 0.00 | 0.00 | 0.00 | 13 | 1008.6 |
| 20260502221027 | 93 | 0 | 3.0 | 10.0 | 0.00 | 0.00 | 0.00 | 13 | 1008.7 |
| 20260502220522 | 94 | 157 | 3.0 | 12.0 | 0.00 | 0.00 | 0.00 | 13 | 1008.8 |
| 20260502220046 | 94 | 202 | 5.0 | 12.0 | 0.00 | 0.00 | 0.00 | 13 | 1008.8 |
| 20260502215526 | 94 | 167 | 2.0 | 7.0 | 0.00 | 0.00 | 0.00 | 13 | 1008.9 |
| 20260502215022 | 93 | 205 | 2.0 | 9.0 | 0.00 | 0.00 | 0.00 | 13 | 1009.0 |
| 20260502214552 | 94 | 298 | 3.0 | 9.0 | 0.00 | 0.00 | 0.00 | 13 | 1009.1 |
| 20260502214025 | 93 | 205 | 1.0 | 9.0 | 0.00 | 0.00 | 0.00 | 13 | 1009.1 |
| 20260502213525 | 93 | 0 | 2.0 | 9.0 | 0.00 | 0.00 | 0.00 | 12 | 1009.2 |
| 20260502213039 | 93 | 0 | 2.0 | 10.0 | 0.00 | 0.00 | 0.00 | 15 | 1009.3 |
| 20260502212525 | 94 | 135 | 2.0 | 10.0 | 0.00 | 0.00 | 0.00 | 15 | 1009.4 |
| 20260502212027 | 94 | 192 | 4.0 | 9.0 | 0.00 | 0.00 | 0.00 | 15 | 1009.5 |
| 20260502211539 | 94 | 0 | 1.0 | 7.0 | 0.00 | 0.00 | 0.00 | 15 | 1009.5 |
| 20260502211025 | 95 | 137 | 2.0 | 7.0 | 0.00 | 0.00 | 0.00 | 15 | 1009.6 |
| 20260502210525 | 94 | 0 | 0.0 | 8.0 | 0.00 | 0.00 | 0.00 | 14 | 1009.7 |
| 20260502210049 | 94 | 186 | 2.0 | 8.0 | 0.00 | 0.00 | 0.00 | 13 | 1009.6 |
| 20260502205522 | 93 | 216 | 1.0 | 8.0 | 0.00 | 0.00 | 0.00 | 14 | 1009.7 |
| 20260502205025 | 93 | 210 | 1.0 | 13.0 | 0.00 | 0.00 | 0.00 | 14 | 1009.9 |
| 20260502204541 | 93 | 190 | 5.0 | 13.0 | 0.00 | 0.00 | 0.00 | 14 | 1010.0 |
| 20260502204025 | 92 | 238 | 3.0 | 11.0 | 0.00 | 0.00 | 0.00 | 17 | 1010.0 |
| 20260502203525 | 92 | 188 | 3.0 | 14.0 | 0.00 | 0.00 | 0.00 | 17 | 1010.0 |
| 20260502203050 | 92 | 148 | 5.0 | 14.0 | 0.00 | 0.00 | 0.00 | 17 | 1010.2 |
| 20260502202528 | 92 | 142 | 4.0 | 14.0 | 0.00 | 0.00 | 0.00 | 18 | 1010.1 |
| 20260502202024 | 91 | 301 | 1.0 | 9.0 | 0.00 | 0.00 | 0.00 | 17 | 1010.3 |
| 20260502201546 | 91 | 322 | 2.0 | 13.0 | 0.00 | 0.00 | 0.00 | 17 | 1010.3 |
| 20260502201025 | 91 | 135 | 4.0 | 13.0 | 0.00 | 0.00 | 0.00 | 18 | 1010.5 |
| 20260502200525 | 91 | 138 | 3.0 | 11.0 | 0.00 | 0.00 | 0.00 | 19 | 1010.4 |
| 20260502200038 | 91 | 157 | 2.0 | 10.0 | 0.00 | 0.00 | 0.00 | 19 | 1010.5 |
| 20260502195525 | 91 | 154 | 4.0 | 11.0 | 0.00 | 0.00 | 0.00 | 20 | 1010.7 |
| 20260502195025 | 91 | 129 | 1.0 | 11.0 | 0.00 | 0.00 | 0.00 | 20 | 1010.6 |
| 20260502194537 | 91 | 90 | 4.0 | 11.0 | 0.00 | 0.00 | 0.00 | 20 | 1010.8 |
| 20260502194025 | 90 | 160 | 2.0 | 12.0 | 0.00 | 0.00 | 0.00 | 20 | 1010.8 |
| 20260502193525 | 90 | 155 | 1.0 | 12.0 | 0.00 | 0.00 | 0.00 | 20 | 1010.8 |
| 20260502193041 | 90 | 245 | 2.0 | 13.0 | 0.00 | 0.00 | 0.00 | 20 | 1010.9 |
| 20260502192524 | 90 | 184 | 6.0 | 13.0 | 0.00 | 0.00 | 0.00 | 20 | 1011.0 |
| 20260502192024 | 90 | 153 | 2.0 | 10.0 | 0.00 | 0.00 | 0.00 | 20 | 1011.1 |
| 20260502191539 | 89 | 180 | 2.0 | 11.0 | 0.00 | 0.00 | 0.00 | 22 | 1011.2 |
| 20260502191024 | 90 | 157 | 5.0 | 14.0 | 0.00 | 0.00 | 0.00 | 21 | 1011.3 |
| 20260502190525 | 89 | 147 | 6.0 | 14.0 | 0.00 | 0.00 | 0.00 | 21 | 1011.4 |
| 20260502190039 | 89 | 144 | 3.0 | 12.0 | 0.00 | 0.00 | 0.00 | 22 | 1011.4 |
| 20260502185525 | 89 | 122 | 3.0 | 12.0 | 0.00 | 0.00 | 0.00 | 22 | 1011.5 |
| 20260502185025 | 89 | 124 | 5.0 | 15.0 | 0.00 | 0.00 | 0.00 | 22 | 1011.5 |
| 20260502184539 | 89 | 171 | 5.0 | 15.0 | 0.00 | 0.00 | 0.00 | 22 | 1011.6 |
| 20260502184025 | 89 | 142 | 4.0 | 11.0 | 0.00 | 0.00 | 0.00 | 23 | 1011.7 |
| 20260502183525 | 88 | 171 | 3.0 | 10.0 | 0.00 | 0.00 | 0.00 | 24 | 1011.7 |
| 20260502183042 | 89 | 141 | 5.0 | 10.0 | 0.00 | 0.00 | 0.00 | 24 | 1011.9 |
| 20260502182529 | 88 | 136 | 3.0 | 12.0 | 0.00 | 0.00 | 0.00 | 24 | 1012.0 |
| 20260502182022 | 88 | 125 | 4.0 | 12.0 | 0.00 | 0.00 | 0.00 | 23 | 1012.1 |
| 20260502181539 | 88 | 173 | 3.0 | 17.0 | 0.00 | 0.00 | 0.00 | 25 | 1012.2 |
| 20260502181023 | 88 | 174 | 7.0 | 17.0 | 0.00 | 0.00 | 0.00 | 25 | 1012.2 |
| 20260502180526 | 88 | 163 | 5.0 | 14.0 | 0.00 | 0.00 | 0.00 | 25 | 1012.2 |
| 20260502164026 | 83 | 96 | 4.0 | 13.0 | 0.00 | 0.00 | 0.00 | 29 | 1012.5 |
| 20260502163525 | 83 | 121 | 7.0 | 14.0 | 0.00 | 0.00 | 0.00 | 30 | 1012.4 |
| 20260502163042 | 83 | 110 | 6.0 | 14.0 | 0.00 | 0.00 | 0.00 | 29 | 1012.4 |
| 20260502162529 | 83 | 116 | 5.0 | 14.0 | 0.00 | 0.00 | 0.00 | 29 | 1012.4 |
| 20260502162025 | 83 | 159 | 5.0 | 14.0 | 0.00 | 0.00 | 0.00 | 29 | 1012.5 |
| 20260502161539 | 82 | 155 | 6.0 | 14.0 | 0.00 | 0.00 | 0.00 | 31 | 1012.4 |
| 20260502161029 | 82 | 135 | 5.0 | 16.0 | 0.00 | 0.00 | 0.00 | 30 | 1012.5 |
| 20260502160528 | 82 | 98 | 6.0 | 16.0 | 0.00 | 0.00 | 0.00 | 31 | 1012.3 |
| 20260502152022 | 80 | 177 | 8.0 | 14.0 | 0.00 | 0.00 | 0.00 | 32 | 1012.1 |
| 20260502151543 | 80 | 144 | 5.0 | 19.0 | 0.00 | 0.00 | 0.00 | 33 | 1012.0 |
| 20260502151025 | 79 | 159 | 5.0 | 19.0 | 0.00 | 0.00 | 0.00 | 33 | 1011.9 |
| 20260502150525 | 79 | 107 | 6.0 | 18.0 | 0.00 | 0.00 | 0.00 | 33 | 1011.8 |
| 20260502130528 | 72 | 112 | 2.0 | 8.0 | 0.00 | 0.00 | 0.00 | 41 | 1010.6 |
| 20260502123525 | 71 | 91 | 3.0 | 10.0 | 0.00 | 0.00 | 0.00 | 38 | 1010.1 |
| 20260502123042 | 71 | 84 | 5.0 | 12.0 | 0.00 | 0.00 | 0.00 | 37 | 1010.0 |
| 20260502122525 | 71 | 108 | 3.0 | 12.0 | 0.00 | 0.00 | 0.00 | 37 | 1009.9 |
| 20260502122025 | 70 | 92 | 4.0 | 9.0 | 0.00 | 0.00 | 0.00 | 37 | 1009.9 |
| 20260502121538 | 70 | 89 | 4.0 | 9.0 | 0.00 | 0.00 | 0.00 | 36 | 1009.8 |
| 20260502121026 | 69 | 115 | 3.0 | 9.0 | 0.00 | 0.00 | 0.00 | 35 | 1009.9 |
| 20260502120525 | 68 | 109 | 4.0 | 7.0 | 0.00 | 0.00 | 0.00 | 35 | 1009.8 |
| 20260502115525 | 67 | 121 | 1.0 | 6.0 | 0.00 | 0.00 | 0.00 | 34 | 1009.7 |
| 20260502115025 | 67 | 155 | 3.0 | 8.0 | 0.00 | 0.00 | 0.00 | 34 | 1009.7 |
| 20260502114600 | 67 | 155 | 2.0 | 8.0 | 0.00 | 0.00 | 0.00 | 34 | 1009.6 |
| 20260502114025 | 67 | 162 | 2.0 | 4.0 | 0.00 | 0.00 | 0.00 | 34 | 1009.7 |
| 20260502113526 | 67 | 158 | 2.0 | 4.0 | 0.00 | 0.00 | 0.00 | 34 | 1009.6 |
| 20260502113042 | 67 | 144 | 1.0 | 4.0 | 0.00 | 0.00 | 0.00 | 34 | 1009.6 |
| 20260502112523 | 67 | 150 | 1.0 | 5.0 | 0.00 | 0.00 | 0.00 | 34 | 1009.6 |
| 20260502112024 | 67 | 124 | 1.0 | 5.0 | 0.00 | 0.00 | 0.00 | 34 | 1009.7 |
| 20260502111539 | 67 | 97 | 1.0 | 2.0 | 0.00 | 0.00 | 0.00 | 34 | 1009.7 |
| 20260502111023 | 66 | 94 | 0.0 | 2.0 | 0.00 | 0.00 | 0.00 | 34 | 1009.7 |
| 20260502110525 | 66 | 0 | 0.0 | 0.0 | 0.00 | 0.00 | 0.00 | 35 | 1009.7 |
| 20260502110039 | 66 | 0 | 0.0 | 0.0 | 0.00 | 0.00 | 0.00 | 35 | 1009.7 |
| 20260502105525 | 66 | 0 | 0.0 | 0.0 | 0.00 | 0.00 | 0.00 | 35 | 1009.6 |
| 20260502105025 | 67 | 0 | 0.0 | 0.0 | 0.00 | 0.00 | 0.00 | 35 | 1009.6 |
| 20260502104537 | 67 | 0 | 0.0 | 1.0 | 0.00 | 0.00 | 0.00 | 35 | 1009.5 |
| 20260502104025 | 67 | 0 | 0.0 | 2.0 | 0.00 | 0.00 | 0.00 | 34 | 1009.5 |
| 20260502103525 | 67 | 0 | 0.0 | 2.0 | 0.00 | 0.00 | 0.00 | 33 | 1009.4 |
| 20260502103040 | 67 | 0 | 0.0 | 3.0 | 0.00 | 0.00 | 0.00 | 33 | 1009.4 |
| 20260502102525 | 68 | 138 | 0.0 | 3.0 | 0.00 | 0.00 | 0.00 | 33 | 1009.3 |
| 20260502102024 | 68 | 138 | 0.0 | 2.0 | 0.00 | 0.00 | 0.00 | 33 | 1009.4 |
| 20260502101558 | 68 | 138 | 0.0 | 4.0 | 0.00 | 0.00 | 0.00 | 33 | 1009.3 |
| 20260502101024 | 68 | 140 | 1.0 | 4.0 | 0.00 | 0.00 | 0.00 | 33 | 1009.2 |
| 20260502100525 | 68 | 153 | 1.0 | 4.0 | 0.00 | 0.00 | 0.00 | 33 | 1009.3 |
| 20260502091024 | 68 | 126 | 1.0 | 5.0 | 0.00 | 0.00 | 0.00 | 33 | 1009.2 |
| 20260502090524 | 68 | 157 | 2.0 | 6.0 | 0.00 | 0.00 | 0.00 | 33 | 1009.1 |
| 20260502071025 | 70 | 125 | 1.0 | 3.0 | 0.00 | 0.00 | 0.00 | 35 | 1009.1 |
| 20260502070522 | 71 | 125 | 1.0 | 3.0 | 0.00 | 0.00 | 0.00 | 36 | 1009.1 |
| 20260502070048 | 71 | 125 | 1.0 | 3.0 | 0.00 | 0.00 | 0.00 | 34 | 1009.2 |
| 20260502065525 | 71 | 0 | 0.0 | 2.0 | 0.00 | 0.00 | 0.00 | 34 | 1009.1 |
| 20260502065027 | 71 | 0 | 0.0 | 2.0 | 0.00 | 0.00 | 0.00 | 35 | 1009.0 |
| 20260502064552 | 71 | 0 | 0.0 | 2.0 | 0.00 | 0.00 | 0.00 | 35 | 1008.9 |
| 20260502064025 | 71 | 125 | 1.0 | 3.0 | 0.00 | 0.00 | 0.00 | 34 | 1008.9 |
| 20260502063526 | 72 | 145 | 1.0 | 3.0 | 0.00 | 0.00 | 0.00 | 34 | 1008.8 |
| 20260502063052 | 72 | 119 | 0.0 | 3.0 | 0.00 | 0.00 | 0.00 | 34 | 1008.8 |
| 20260502062525 | 72 | 119 | 1.0 | 4.0 | 0.00 | 0.00 | 0.00 | 34 | 1008.8 |
| 20260502062025 | 72 | 119 | 1.0 | 4.0 | 0.00 | 0.00 | 0.00 | 34 | 1008.7 |
| 20260502061542 | 72 | 103 | 1.0 | 4.0 | 0.00 | 0.00 | 0.00 | 34 | 1008.6 |
| 20260502061025 | 72 | 141 | 1.0 | 3.0 | 0.00 | 0.00 | 0.00 | 34 | 1008.6 |
| 20260502060527 | 72 | 141 | 1.0 | 3.0 | 0.00 | 0.00 | 0.00 | 33 | 1008.7 |
| 20260502060045 | 73 | 141 | 0.0 | 2.0 | 0.00 | 0.00 | 0.00 | 33 | 1008.5 |
| 20260502055526 | 73 | 0 | 1.0 | 2.0 | 0.00 | 0.00 | 0.00 | 33 | 1008.6 |
| 20260502055026 | 73 | 141 | 1.0 | 2.0 | 0.00 | 0.00 | 0.00 | 33 | 1008.6 |
| 20260502054539 | 73 | 0 | 0.0 | 1.0 | 0.00 | 0.00 | 0.00 | 34 | 1008.5 |
| 20260502054025 | 73 | 0 | 0.0 | 2.0 | 0.00 | 0.00 | 0.00 | 33 | 1008.5 |
| 20260502053525 | 73 | 0 | 0.0 | 2.0 | 0.00 | 0.00 | 0.00 | 33 | 1008.5 |
| 20260502053052 | 74 | 141 | 0.0 | 2.0 | 0.00 | 0.00 | 0.00 | 32 | 1008.5 |
| 20260502052526 | 74 | 0 | 0.0 | 2.0 | 0.00 | 0.00 | 0.00 | 32 | 1008.5 |
| 20260502052025 | 74 | 141 | 0.0 | 2.0 | 0.00 | 0.00 | 0.00 | 32 | 1008.4 |
| 20260502051540 | 74 | 0 | 0.0 | 2.0 | 0.00 | 0.00 | 0.00 | 31 | 1008.5 |
| 20260502051027 | 74 | 141 | 0.0 | 2.0 | 0.00 | 0.00 | 0.00 | 31 | 1008.3 |
| 20260502050526 | 75 | 141 | 0.0 | 2.0 | 0.00 | 0.00 | 0.00 | 31 | 1008.3 |
| 20260502050039 | 75 | 0 | 0.0 | 2.0 | 0.00 | 0.00 | 0.00 | 31 | 1008.2 |
| 20260502045526 | 75 | 141 | 1.0 | 3.0 | 0.00 | 0.00 | 0.00 | 30 | 1008.2 |
| 20260502045025 | 75 | 144 | 0.0 | 5.0 | 0.00 | 0.00 | 0.00 | 30 | 1008.2 |
| 20260502044539 | 76 | 144 | 2.0 | 5.0 | 0.00 | 0.00 | 0.00 | 29 | 1008.2 |
| 20260502044024 | 76 | 153 | 2.0 | 4.0 | 0.00 | 0.00 | 0.00 | 29 | 1008.1 |
| 20260502043523 | 77 | 0 | 0.0 | 2.0 | 0.00 | 0.00 | 0.00 | 28 | 1008.2 |
| 20260502043058 | 78 | 245 | 0.0 | 2.0 | 0.00 | 0.00 | 0.00 | 29 | 1008.0 |
| 20260502042523 | 78 | 0 | 0.0 | 2.0 | 0.00 | 0.00 | 0.00 | 28 | 1007.9 |
| 20260502042023 | 78 | 248 | 0.0 | 2.0 | 0.00 | 0.00 | 0.00 | 26 | 1008.0 |
| 20260502041546 | 79 | 250 | 0.0 | 2.0 | 0.00 | 0.00 | 0.00 | 26 | 1007.9 |
| 20260502041023 | 79 | 263 | 0.0 | 2.0 | 0.00 | 0.00 | 0.00 | 26 | 1007.9 |
| 20260502040523 | 79 | 265 | 0.0 | 2.0 | 0.00 | 0.00 | 0.00 | 26 | 1007.9 |
| 20260502040042 | 78 | 265 | 0.0 | 2.0 | 0.00 | 0.00 | 0.00 | 26 | 1007.8 |
| 20260502035526 | 79 | 0 | 0.0 | 2.0 | 0.00 | 0.00 | 0.00 | 27 | 1007.8 |
| 20260502035023 | 79 | 266 | 0.0 | 2.0 | 0.00 | 0.00 | 0.00 | 26 | 1007.8 |
| 20260502034540 | 79 | 0 | 0.0 | 1.0 | 0.00 | 0.00 | 0.00 | 26 | 1007.7 |
| 20260502034027 | 79 | 0 | 0.0 | 1.0 | 0.00 | 0.00 | 0.00 | 25 | 1007.7 |
| 20260502033527 | 80 | 0 | 0.0 | 2.0 | 0.00 | 0.00 | 0.00 | 26 | 1007.6 |
| 20260502033040 | 80 | 0 | 0.0 | 2.0 | 0.00 | 0.00 | 0.00 | 24 | 1007.6 |
| 20260502032525 | 81 | 266 | 0.0 | 2.0 | 0.00 | 0.00 | 0.00 | 24 | 1007.5 |
| 20260502032024 | 81 | 0 | 0.0 | 1.0 | 0.00 | 0.00 | 0.00 | 23 | 1007.3 |
| 20260502031539 | 82 | 0 | 0.0 | 1.0 | 0.00 | 0.00 | 0.00 | 23 | 1007.3 |
| 20260502031026 | 82 | 0 | 0.0 | 2.0 | 0.00 | 0.00 | 0.00 | 23 | 1007.2 |
| 20260502030526 | 82 | 0 | 0.0 | 2.0 | 0.00 | 0.00 | 0.00 | 22 | 1007.3 |
| 20260502030045 | 83 | 0 | 0.0 | 1.0 | 0.00 | 0.00 | 0.00 | 21 | 1007.3 |
| 20260502025526 | 83 | 262 | 0.0 | 2.0 | 0.00 | 0.00 | 0.00 | 21 | 1007.2 |
| 20260502025029 | 83 | 0 | 0.0 | 3.0 | 0.00 | 0.00 | 0.00 | 21 | 1007.2 |
| 20260502024543 | 83 | 0 | 0.0 | 3.0 | 0.00 | 0.00 | 0.00 | 21 | 1007.2 |
| 20260502024025 | 84 | 302 | 1.0 | 3.0 | 0.00 | 0.00 | 0.00 | 21 | 1007.1 |
| 20260502023525 | 84 | 290 | 0.0 | 3.0 | 0.00 | 0.00 | 0.00 | 21 | 1007.1 |
| 20260502023039 | 84 | 279 | 0.0 | 4.0 | 0.00 | 0.00 | 0.00 | 21 | 1007.1 |
| 20260502022525 | 84 | 255 | 1.0 | 5.0 | 0.00 | 0.00 | 0.00 | 20 | 1007.1 |
| 20260502022028 | 84 | 282 | 1.0 | 7.0 | 0.00 | 0.00 | 0.00 | 20 | 1007.1 |
| 20260502021539 | 85 | 247 | 2.0 | 7.0 | 0.00 | 0.00 | 0.00 | 20 | 1007.0 |
| 20260502021027 | 85 | 275 | 2.0 | 8.0 | 0.00 | 0.00 | 0.00 | 20 | 1006.9 |
| 20260502020528 | 85 | 258 | 3.0 | 8.0 | 0.00 | 0.00 | 0.00 | 20 | 1006.9 |
| 20260502020039 | 85 | 273 | 2.0 | 7.0 | 0.00 | 0.00 | 0.00 | 20 | 1007.0 |
| 20260502015527 | 86 | 287 | 1.0 | 8.0 | 0.00 | 0.00 | 0.00 | 20 | 1006.9 |
| 20260502015026 | 86 | 267 | 3.0 | 8.0 | 0.00 | 0.00 | 0.00 | 20 | 1006.9 |
| 20260502014540 | 86 | 302 | 2.0 | 8.0 | 0.00 | 0.00 | 0.00 | 20 | 1006.8 |
| 20260502014025 | 86 | 281 | 2.0 | 8.0 | 0.00 | 0.00 | 0.00 | 20 | 1006.8 |
| 20260502013525 | 87 | 275 | 3.0 | 8.0 | 0.00 | 0.00 | 0.00 | 21 | 1006.7 |
| 20260502013051 | 87 | 0 | 1.0 | 4.0 | 0.00 | 0.00 | 0.00 | 21 | 1006.8 |
| 20260502012525 | 87 | 311 | 1.0 | 6.0 | 0.00 | 0.00 | 0.00 | 20 | 1006.6 |
| 20260502012028 | 87 | 297 | 1.0 | 10.0 | 0.00 | 0.00 | 0.00 | 20 | 1006.8 |
| 20260502011542 | 87 | 284 | 2.0 | 10.0 | 0.00 | 0.00 | 0.00 | 20 | 1006.8 |
| 20260502011024 | 87 | 306 | 3.0 | 10.0 | 0.00 | 0.00 | 0.00 | 19 | 1006.9 |
| 20260502010524 | 87 | 327 | 2.0 | 10.0 | 0.00 | 0.00 | 0.00 | 20 | 1006.8 |
| 20260502010042 | 87 | 334 | 4.0 | 10.0 | 0.00 | 0.00 | 0.00 | 20 | 1006.7 |
| 20260502005525 | 87 | 319 | 4.0 | 10.0 | 0.00 | 0.00 | 0.00 | 20 | 1006.6 |
| 20260502005025 | 87 | 264 | 2.0 | 11.0 | 0.00 | 0.00 | 0.00 | 21 | 1006.7 |
| 20260502004543 | 87 | 262 | 2.0 | 11.0 | 0.00 | 0.00 | 0.00 | 21 | 1006.6 |
| 20260502004024 | 87 | 325 | 4.0 | 10.0 | 0.00 | 0.00 | 0.00 | 20 | 1006.6 |
| 20260502003526 | 87 | 294 | 2.0 | 10.0 | 0.00 | 0.00 | 0.00 | 21 | 1006.6 |
| 20260502003039 | 87 | 336 | 3.0 | 10.0 | 0.00 | 0.00 | 0.00 | 21 | 1006.6 |
| 20260502002525 | 87 | 330 | 3.0 | 12.0 | 0.00 | 0.00 | 0.00 | 21 | 1006.7 |
| 20260502002025 | 88 | 320 | 4.0 | 12.0 | 0.00 | 0.00 | 0.00 | 21 | 1006.7 |
| 20260502001539 | 88 | 348 | 3.0 | 9.0 | 0.00 | 0.00 | 0.00 | 21 | 1006.7 |
| 20260502001025 | 87 | 221 | 1.0 | 7.0 | 0.00 | 0.00 | 0.00 | 21 | 1006.7 |
| 20260502000525 | 87 | 49 | 0.0 | 11.0 | 0.00 | 0.00 | 0.00 | 20 | 1006.7 |
| 20260502000035 | 87 | 330 | 1.0 | 11.0 | 0.00 | 0.00 | 0.00 | 20 | 1006.7 |
| 20260501235525 | 88 | 290 | 4.0 | 11.0 | 0.00 | 0.00 | 0.00 | 20 | 1006.8 |
| 20260501235025 | 88 | 275 | 1.0 | 8.0 | 0.00 | 0.00 | 0.00 | 20 | 1006.8 |
| 20260501234542 | 88 | 277 | 2.0 | 9.0 | 0.00 | 0.00 | 0.00 | 20 | 1006.9 |
| 20260501234025 | 88 | 217 | 3.0 | 10.0 | 0.00 | 0.00 | 0.00 | 20 | 1006.9 |
| 20260501233525 | 88 | 277 | 3.0 | 10.0 | 0.00 | 0.00 | 0.00 | 20 | 1006.9 |
| 20260501233040 | 88 | 302 | 3.0 | 11.0 | 0.00 | 0.00 | 0.00 | 19 | 1006.9 |
| 20260501232525 | 88 | 234 | 3.0 | 11.0 | 0.00 | 0.00 | 0.00 | 20 | 1006.9 |
| 20260501232026 | 88 | 234 | 2.0 | 11.0 | 0.00 | 0.00 | 0.00 | 20 | 1007.0 |
| 20260501231539 | 88 | 335 | 2.0 | 11.0 | 0.00 | 0.00 | 0.00 | 20 | 1007.0 |
| 20260501231025 | 88 | 257 | 4.0 | 11.0 | 0.00 | 0.00 | 0.00 | 20 | 1007.0 |
| 20260501230524 | 87 | 251 | 2.0 | 9.0 | 0.00 | 0.00 | 0.00 | 20 | 1007.0 |
| 20260501230038 | 87 | 329 | 2.0 | 12.0 | 0.00 | 0.00 | 0.00 | 19 | 1007.0 |
| 20260501225526 | 87 | 238 | 5.0 | 12.0 | 0.00 | 0.00 | 0.00 | 19 | 1007.0 |
| 20260501225028 | 87 | 300 | 3.0 | 10.0 | 0.00 | 0.00 | 0.00 | 19 | 1007.0 |